Satellite-Ground Cal/Val Site Overpasses Predictions

Prediction of Satellite NPP Overpassing Cal/Val Site: Antarctic Dome C

Ground Cal/Val Site Location: Latitude: -75.10, Longitude: 123.35; Satellite-Ground Site NADIR distance within 100 km.

Table of predicted overpasses for the next 14.0 days since TLE Epoch: 6/23/2012
Interval Starting Time Ending Time Minimum Distance Time Minimum Distance (km)
1 06/24/2012 14:53:00 06/24/2012 14:53:29 06/24/2012 14:53:15 18.35
2 06/25/2012 14:34:17 06/25/2012 14:34:30 06/25/2012 14:34:24 88.90
3 06/26/2012 07:35:48 06/26/2012 07:36:15 06/26/2012 07:36:02 35.39
4 06/27/2012 07:17:01 06/27/2012 07:17:20 06/27/2012 07:17:11 75.00
5 06/29/2012 14:59:12 06/29/2012 14:59:36 06/29/2012 14:59:24 54.61
6 06/30/2012 14:40:20 06/30/2012 14:40:45 06/30/2012 14:40:33 54.54
7 07/01/2012 07:42:00 07/01/2012 07:42:21 07/01/2012 07:42:11 70.02
8 07/02/2012 07:23:06 07/02/2012 07:23:33 07/02/2012 07:23:19 38.19
9 07/04/2012 15:05:27 07/04/2012 15:05:38 07/04/2012 15:05:32 91.73
10 07/05/2012 14:46:27 07/05/2012 14:46:56 07/05/2012 14:46
